Showing default

COSMOS 2588, 64095

Orbit data source: Space-Track

COSMOS 2588, 64095 is a payload satellite owned by TS VS RF (CIS) in LEO that was launched on Fri, 23 May 2025 UTC via a SOYUZ-2-1B launch vehicle from the Plesetsk Missile And Space Complex (PKMTR). Payload-class satellites include a variety of spacecraft equipped with specific instruments for various scientific and technological missions. These include communications satellites like Starlink; space stations such as the ISS; scientific satellites like the Hubble; Earth observation satellites from companies like Planet Labs, Umbra, and HawkEye 360; GPS; miniature CubeSats for education and research; and military/defense satellites.

Loading next visibility...
Identifier
64095, 2025-109A
Orbit
LEO
Country
Flag of CISCIS
Related business
Manufacturer
Lavochkin
Mission
Operational Defense Imaging
Bus & Motor
KARAT-200, Unknown motor
Mass
~500 kg wet, ~500 kg dry
Launch date (UTC)
2025-05-23 (1 year ago)
Launch vehicle
SOYUZ-2-1B
Launch site
Plesetsk Missile And Space Complex (PKMTR)
Object type
Payload
Rocket body
Debris
Shape & HBR
Cyl + 2 Pan, 1.6 m
Radar Cross Section
3.727 m², Large (>1 m²)

Expand to show TLE details & history
Last TLE update: 14 hours ago

TLE from 14 hours ago
0 COSMOS 2588
1 64095U 25109A   26150.73528216  .00012524  00000-0  44895-3 0  9996
2 64095  72.9726 248.1808 0009742 147.5304 212.6493 15.28745678 56940
Epoch: 2026-05-30T17:38Z
TLE epoch observation values (Epoch: 2026-05-30T17:38:48.378Z)
Latitude
Longitude
95.23218°
Altitude
487.846 km
Speed
7.618 km/s
True Right ascension
16h 32m 43s
True Declination
0° 00' 00"
Sunlit
Object was in full shadow at epoch
Visualization orbit readout
Latitude
Unknown
Longitude
Unknown
Altitude
Unknown
Speed
Unknown
Apparent Right ascension
Unknown
Apparent Declination
Unknown
Sunlit
N/A
Visualization observer readout
Local Sidereal Time
17:31:03
Azimuth
Unknown
Elevation
Unknown
Doppler factor
Unknown
Orbital elements
Apogee altitude
483.859 km
Perigee altitude
470.502 km
Semi-major axis
6,855.318 km
Eccentricity
0.00097
Inclination
72.9726°
RAAN
248.1808°
Arg. of periapsis
147.5304°
True anomaly
212.58914°
Mean anomaly
212.6493°
Eccentric anomaly
212.61921°
Mean motion
3.82386 °/min
Orbital period
94.15 mins
BSTAR
0.00044895
Loading maneuver chart data...
Computing Atmospheric mass density...
Loading historical data...
Loading historical data...
Loading historical data...
Loading historical data...
Loading historical data...
Loading historical data...
Loading historical data...
Other satellites on launch #109 in the year 2025 (2025-05-23 UTC)

Documentation

Showing up to 5 results
|